Weather History for Macomb, IL

Change the Weather History Date:

Saturday, March 15, 2014

  Actual Average (KBRL) Record (KBRL)
Temperature  
Mean Temperature 41 °F 41 °F  
Max Temperature 52 °F 51 °F 81 °F (2012)
Min Temperature 30 °F 31 °F 9 °F (1951)
Degree Days  
Heating Degree Days 24 24  
Month to date heating degree days 405  
Since 1 July heating degree days 4783  
Cooling Degree Days 0 0  
Month to date cooling degree days 0  
Year to date cooling degree days 0  
Moisture  
Dew Point 31 °F    
Average Humidity 75    
Maximum Humidity 97    
Minimum Humidity 47    
Precipitation  
Precipitation 0.00 in 0.09 in 0.89 in (2001)
Month to date precipitation 1.29  
Year to date precipitation 4.15  
Sea Level Pressure  
Sea Level Pressure 30.06 in    
Wind  
Wind Speed 8 mph (NE)    
Max Wind Speed 21 mph    
Max Gust Speed 29 mph    
Visibility 10 miles    
Events      
T = Trace of Precipitation, MM = Missing Value Source: NWS Daily Summary

Daily Weather History Graph

Daily Weather History Graph

Search for Another Location

Airport:

Trip Planner

Search our weather history database for the weather conditions in past years. The results will help you decide how hot, cold, wet, or windy it might be!

Date:

Astronomy

Mar. 15, 2014 Rise Set
Actual Time 7:14 AM CDT 7:09 PM CDT
Civil Twilight 6:46 AM CDT 7:36 PM CDT
Nautical Twilight 6:15 AM CDT 8:08 PM CDT
Astronomical Twilight 5:43 AM CDT 8:40 PM CDT
Moon 6:28 PM CDT (3/15) 6:26 AM CDT (3/15)
Length of Visible Light 12h 49m
Length of Day
11h 55m
Waxing Gibbous, 99% of the Moon is Illuminated
Mar 15
Waxing Gibbous
Mar 16
Full
Mar 23
Last Quarter
Mar 30
New
Apr 7
First Quarter

Hourly Weather History & Observations

Time (CDT) Temp. Windchill Dew Point Humidity Pressure Visibility Wind Dir Wind Speed Gust Speed Precip Events Conditions
12:15 AM 33.4 °F 27.3 °F 30.7 °F 90% 29.99 in 10.0 mi WSW 6.9 mph - N/A   Clear
12:35 AM 34.2 °F 28.2 °F 31.1 °F 89% 29.99 in 10.0 mi WSW 6.9 mph - N/A   Clear
12:55 AM 34.5 °F 29.4 °F 31.1 °F 87% 29.99 in 10.0 mi WSW 5.8 mph - N/A   Clear
1:15 AM 33.4 °F 29.1 °F 30.9 °F 90% 30.00 in 10.0 mi West 4.6 mph - N/A   Clear
1:35 AM 33.4 °F 29.1 °F 31.1 °F 91% 30.00 in 10.0 mi West 4.6 mph - N/A   Clear
1:55 AM 32.2 °F 27.7 °F 30.2 °F 92% 30.00 in 10.0 mi West 4.6 mph - N/A   Clear
2:15 AM 32.2 °F 27.7 °F 30.6 °F 94% 30.01 in 10.0 mi WSW 4.6 mph - N/A   Clear
2:35 AM 34.2 °F 27.5 °F 31.3 °F 89% 30.01 in 10.0 mi West 8.1 mph - N/A   Clear
2:55 AM 34.5 °F 27.9 °F 30.9 °F 87% 30.02 in 10.0 mi WNW 8.1 mph - N/A   Clear
3:15 AM 32.7 °F 26.4 °F 30.2 °F 90% 30.01 in 10.0 mi WNW 6.9 mph - N/A   Clear
3:35 AM 32.5 °F 25.5 °F 30.0 °F 90% 30.02 in 10.0 mi WNW 8.1 mph - N/A   Clear
3:55 AM 32.0 °F 26.4 °F 29.7 °F 91% 30.02 in 10.0 mi WNW 5.8 mph - N/A   Clear
4:15 AM 32.4 °F 26.9 °F 30.0 °F 91% 30.01 in 10.0 mi NW 5.8 mph - N/A   Clear
4:35 AM 32.2 °F 27.7 °F 29.3 °F 89% 30.02 in 10.0 mi NNW 4.6 mph - N/A   Clear
4:55 AM 32.2 °F - 30.0 °F 92% 30.02 in 10.0 mi Calm Calm - N/A   Clear
5:15 AM 32.5 °F 29.3 °F 30.2 °F 91% 30.03 in 10.0 mi NNW 3.5 mph - N/A   Clear
5:35 AM 32.7 °F 28.3 °F 30.4 °F 91% 30.03 in 10.0 mi North 4.6 mph - N/A   Clear
5:55 AM 32.0 °F 28.7 °F 30.0 °F 92% 30.04 in 10.0 mi NNW 3.5 mph - N/A   Clear
6:15 AM 31.6 °F - 29.5 °F 92% 30.05 in 10.0 mi Calm Calm - N/A   Clear
6:35 AM 30.9 °F - 28.9 °F 92% 30.05 in 10.0 mi Calm Calm - N/A   Clear
6:55 AM 30.0 °F - 28.8 °F 95% 30.05 in 10.0 mi Calm Calm - N/A   Clear
7:15 AM 30.7 °F 27.3 °F 29.3 °F 94% 30.05 in 10.0 mi NNE 3.5 mph - N/A   Clear
7:35 AM 30.7 °F 27.3 °F 29.5 °F 95% 30.05 in 10.0 mi NE 3.5 mph - N/A   Clear
7:55 AM 31.5 °F - 30.2 °F 95% 30.06 in 10.0 mi Calm Calm - N/A   Clear
8:15 AM 32.0 °F - 31.3 °F 97% 30.06 in 10.0 mi Calm Calm - N/A   Clear
8:35 AM 33.6 °F - 32.0 °F 94% 30.07 in 10.0 mi Calm Calm - N/A   Clear
8:55 AM 35.6 °F 31.7 °F 32.5 °F 89% 30.07 in 10.0 mi ESE 4.6 mph - N/A   Clear
9:15 AM 37.4 °F 32.8 °F 33.1 °F 84% 30.08 in 10.0 mi East 5.8 mph - N/A   Clear
9:35 AM 38.5 °F 34.1 °F 31.8 °F 77% 30.08 in 10.0 mi East 5.8 mph - N/A   Clear
9:55 AM 39.6 °F 34.7 °F 30.6 °F 70% 30.08 in 10.0 mi East 6.9 mph - N/A   Clear
10:15 AM 40.6 °F 35.4 °F 28.0 °F 61% 30.09 in 10.0 mi East 8.1 mph - N/A   Clear
10:35 AM 42.1 °F 36.1 °F 29.5 °F 61% 30.09 in 10.0 mi East 10.4 mph - N/A   Clear
10:55 AM 43.2 °F 37.9 °F 27.3 °F 54% 30.09 in 10.0 mi East 9.2 mph - N/A   Clear
11:15 AM 44.4 °F 39.5 °F 28.4 °F 53% 30.09 in 10.0 mi East 9.2 mph - N/A   Scattered Clouds
11:35 AM 45.9 °F 41.7 °F 29.5 °F 53% 30.09 in 10.0 mi East 8.1 mph - N/A   Clear
11:55 AM 47.5 °F - 30.6 °F 52% 30.08 in 10.0 mi East 8.1 mph - N/A   Clear
12:15 PM 47.1 °F - 30.2 °F 52% 30.08 in 10.0 mi East 11.5 mph - N/A   Clear
12:35 PM 47.8 °F - 31.1 °F 52% 30.08 in 10.0 mi ENE 8.1 mph - N/A   Clear
1:15 PM 50.4 °F - 32.5 °F 50% 30.08 in 10.0 mi East 8.1 mph - N/A   Clear
1:35 PM 49.5 °F - 31.5 °F 50% 30.06 in 10.0 mi ENE 9.2 mph - N/A   Scattered Clouds
1:55 PM 50.9 °F - 32.4 °F 49% 30.06 in 10.0 mi ENE 11.5 mph - N/A   Scattered Clouds
2:15 PM 52.0 °F - 32.5 °F 48% 30.05 in 10.0 mi ENE 10.4 mph - N/A   Clear
2:35 PM 52.5 °F - 32.5 °F 47% 30.04 in 10.0 mi ENE 11.5 mph 18.4 mph N/A   Scattered Clouds
2:55 PM 51.6 °F - 33.3 °F 50% 30.04 in 10.0 mi ENE 15.0 mph - N/A   Mostly Cloudy
3:15 PM 51.3 °F - 31.6 °F 47% 30.04 in 10.0 mi ENE 16.1 mph - N/A   Scattered Clouds
3:35 PM 52.2 °F - 34.3 °F 51% 30.03 in 10.0 mi ENE 13.8 mph - N/A   Scattered Clouds
3:55 PM 52.0 °F - 33.3 °F 49% 30.03 in 10.0 mi East 15.0 mph 18.4 mph N/A   Scattered Clouds
4:15 PM 52.3 °F - 34.2 °F 50% 30.03 in 10.0 mi East 12.7 mph - N/A   Mostly Cloudy
4:35 PM 52.0 °F - 34.2 °F 51% 30.03 in 10.0 mi East 16.1 mph - N/A   Scattered Clouds
4:55 PM 52.0 °F - 34.5 °F 51% 30.03 in 10.0 mi East 16.1 mph - N/A   Clear
5:15 PM 51.4 °F - 34.3 °F 52% 30.03 in 10.0 mi ENE 15.0 mph - N/A   Clear
5:35 PM 51.1 °F - 33.8 °F 52% 30.03 in 10.0 mi East 15.0 mph - N/A   Clear
5:55 PM 50.0 °F - 36.7 °F 60% 30.04 in 10.0 mi NE 17.3 mph 20.7 mph N/A   Clear
6:15 PM 47.5 °F - 36.3 °F 65% 30.04 in 10.0 mi NE 19.6 mph - N/A   Clear
6:35 PM 45.1 °F 37.9 °F 34.9 °F 67% 30.05 in 10.0 mi ENE 17.3 mph 25.3 mph N/A   Clear
6:55 PM 43.3 °F 35.0 °F 34.9 °F 72% 30.06 in 10.0 mi NE 19.6 mph - N/A   Clear
7:15 PM 42.4 °F 34.4 °F 34.2 °F 72% 30.07 in 10.0 mi NE 17.3 mph - N/A   Clear
7:35 PM 41.5 °F 32.4 °F 34.2 °F 75% 30.08 in 10.0 mi NE 20.7 mph 25.3 mph N/A   Clear
7:55 PM 40.3 °F 31.6 °F 33.1 °F 75% 30.08 in 10.0 mi NE 17.3 mph - N/A   Clear
8:15 PM 39.2 °F 29.6 °F 32.0 °F 75% 30.08 in 10.0 mi NE 19.6 mph 25.3 mph N/A   Clear
8:35 PM 38.1 °F 28.1 °F 31.5 °F 77% 30.09 in 10.0 mi ENE 19.6 mph 23.0 mph N/A   Clear
8:55 PM 36.9 °F 26.8 °F 31.1 °F 80% 30.09 in 10.0 mi NE 18.4 mph - N/A   Clear
9:15 PM 36.1 °F 26.5 °F 30.4 °F 80% 30.08 in 10.0 mi ENE 16.1 mph - N/A   Clear
9:35 PM 35.6 °F 25.9 °F 29.7 °F 79% 30.09 in 10.0 mi NE 16.1 mph - N/A   Clear
9:55 PM 35.6 °F 24.8 °F 30.2 °F 81% 30.10 in 10.0 mi NE 19.6 mph 24.2 mph N/A   Mostly Cloudy
10:15 PM 35.1 °F 23.8 °F 30.2 °F 82% 30.10 in 10.0 mi NE 20.7 mph 25.3 mph N/A   Scattered Clouds
10:35 PM 34.9 °F 24.9 °F 30.2 °F 83% 30.12 in 10.0 mi NE 16.1 mph - N/A   Scattered Clouds
10:55 PM 34.7 °F 23.7 °F 30.9 °F 86% 30.14 in 10.0 mi NE 19.6 mph 25.3 mph N/A   Overcast
11:15 PM 34.9 °F 23.9 °F 31.1 °F 86% 30.14 in 10.0 mi NE 19.6 mph 26.5 mph N/A   Overcast
11:35 PM 34.7 °F 23.4 °F 30.4 °F 84% 30.15 in 10.0 mi NE 20.7 mph 28.8 mph N/A   Overcast
11:55 PM 34.3 °F 23.5 °F 30.7 °F 87% 30.15 in 10.0 mi ENE 18.4 mph - N/A   Overcast